Regional Weather Roundup
Issued by NWS

Home | Current Version | Previous Version | Text Only | Print | Product List | Glossary Off
Versions: 1 2 3 4 5 6 7 8 9 10 11 12 13 14 15 16 17 18 19 20 21 22 23 24 25 26 27 28 29 30 31 32 33 34 35 36 37 38 39 40 41 42 43 44 45 46 47 48 49 50

000
ASUS44 KMEG 300410
RWRTN
TENNESSEE HOURLY STATE WEATHER ROUNDUP
NATIONAL WEATHER SERVICE MEMPHIS TN
1100 PM CDT WED OCT 29 2014

TNZ002-004-019-021-049-052-054-088>092-300500-
WEST TENNESSEE

CITY           SKY/WX    TMP DP  RH WIND       PRES   REMARKS
MEMPHIS INTL   CLEAR     52  47  83 CALM      30.15R
NWS MEMPHIS      N/A     48 N/A N/A MISG        N/A
JACKSON        CLEAR     44  41  89 CALM      30.15S
DYERSBURG      CLEAR     46  30  53 CALM      30.16S
UNION CITY     CLEAR     43  41  93 CALM      30.15R
PARIS          CLEAR     39  37  93 CALM      30.15S
HUNTINGDON     CLEAR     42  39  89 CALM      30.15S
SAVANNAH       CLEAR     43  41  93 CALM      30.14S
$$

TNZ008-025-027-028-033-062-065-066-300500-
NORTH MIDDLE TENNESSEE

CITY           SKY/WX    TMP DP  RH WIND       PRES   REMARKS
NASHVILLE      CLEAR     49  39  68 CALM      30.14S
DICKSON        CLEAR     46  36  66 N5        30.13S
PORTLAND       CLEAR     46  36  66 CALM      30.13S
CLARKSVILLE    CLEAR     44  40  85 CALM      30.15R
SMYRNA         CLEAR     48  39  71 NW6       30.15S
MURFREESBORO   CLEAR     47  42  82 CALM      30.13S
COOKEVILLE     CLEAR     37  37 100 CALM      30.12F
LIVINGSTON     CLEAR     48  36  63 N6        30.13
GALLATIN       CLEAR     49  39  68 NW5       30.14S
CROSSVILLE     CLEAR     45  38  76 CALM      30.12S
ROCKWOOD       CLOUDY    45  37  73 NW6       30.10F
$$

TNZ061-075-076-078-094-096-097-300500-
SOUTH MIDDLE TENNESSEE

CITY           SKY/WX    TMP DP  RH WIND       PRES   REMARKS
FAYETTEVILLE   CLEAR     46  37  71 N20G58    30.12F
TULLAHOMA      CLEAR     39  37  93 CALM      30.13F
WINCHESTER     CLEAR     43  41  93 CALM      30.13F
MCMINNVILLE    CLEAR     43  43 100 CALM      30.12F
COLUMBIA       CLEAR     43  43 100 SW3       30.12F
SHELBYVILLE    CLEAR     43  43 100 CALM      30.14S
$$

TNZ017-018-042-046-047-300500-
NORTHEAST TENNESSEE

CITY           SKY/WX    TMP DP  RH WIND       PRES   REMARKS
TRI CITIES     PTCLDY    41  40  96 CALM      30.10F FOG
ELIZABETHTON   PTCLDY    37  37 100 CALM      30.11S
$$

TNZ012-013-036-069-073-074-300500-
CENTRAL EAST TENNESSEE

CITY           SKY/WX    TMP DP  RH WIND       PRES   REMARKS
KNOXVILLE      PTCLDY    46  43  89 CALM      30.10S
OAK RIDGE      CLEAR     47  44  90 CALM      30.12F
GATLINBURG     CLEAR     41  39  93 CALM      30.11S
MORRISTOWN     CLEAR     45  43  93 CALM      30.11F
$$

TNZ083-085-099-300500-
SOUTHEAST TENNESSEE

CITY           SKY/WX    TMP DP  RH WIND       PRES   REMARKS
CHATTANOOGA    CLEAR     48  43  82 CALM      30.11F
$$

SKY/WX REPORTED AS FAIR MEANS FEW OR NO CLOUDS BELOW
12 THOUSAND FEET.




USA.gov is the U.S. government's official web portal to all federal, state and local government web resources and services.